Location: Lecco
(45.8566°N, 9.3977°E)
Time: 13:49:45
(UTC+02:00)

ISS - Pass Details

Date: 21 July 2018
Orbit: 402 x 408 km, 51.6° (Epoch: 21 July)

Event Time Altitude Azimuth Distance (km) Brightness Sun altitude
Rises 04:34:45 0° 294° (WNW) 2,332 -0.2 -11.4°
Reaches altitude 10° 04:36:56 10° 285° (WNW) 1,469 -1.3 -11.2°
Maximum altitude 04:39:59 35° 218° (SW) 677 -3.2 -10.8°
Drops below altitude 10° 04:43:00 10° 150° (SSE) 1,462 -1.2 -10.4°
Sets 04:45:11 0° 142° (SE) 2,319 0.0 -10.1°
